Погода в Светлогорске

Беларусь     52°37′58″N   29°44′54″E
темп.,
°C
ветер,
м/с
пор.,
м/с
влажн.,
%
обл.,
%
осадки,
мм/ч
давл.,
гПа
погр.,
м
23 апреля, пт
пт2300:00+7з269497 8.1 1013155
03:00+6з3682100 9.5 1013360
06:00+5зюз3788100 0.0 1014281
09:00+6зюз487196 0.0 1015713
12:00+9з6848100 0.0 10151883
15:00+9з5849100 0.0 10151922
18:00+7з5761100 0.2 10151307
21:00+4зюз3676100 0.3 1015110
24 апреля, сб
сб2400:00+2зюз39845 0.0 1015278
03:00+2з598621 0.1 1014535
06:000з5118878 0.1 1014614
09:00+1зсз81494100 1.8 10151040
12:00+5сз7105796 0.4 10161856
15:00+6сз6947100 0.8 10172453
18:00+5зсз586290 0.3 10171439
21:00+2зюз377299 0.3 1018122
25 апреля, вс
вс2500:00+1зюз310795 0.0 1017234
03:000зюз398635 0.0 1017211
06:000зюз378596 0.0 1017199
09:00+1зсз359199 2.1 1016474
12:00+5зсз4649100 0.1 10162028
15:00+6зсз5755100 0.3 10161799
18:00+6з475969 0.3 10161466
21:00+1зюз337975 0.4 101736
26 апреля, пн
пн2600:00−1зюз37898 0.0 1017132
03:00−1зюз2592100 0.0 101697
06:00−1зюз2593100 0.2 1016135
09:00+3зсз3579100 0.5 1015652
12:00+3з4685100 1.4 1015801
15:00+6з5747100 1.9 10142191
18:00+5з576392 0.2 10131400
21:00+1зюз38845 0.3 1014134
27 апреля, вт
вт2700:000зюз3108745 0.0 1014207
03:00−1зюз3889100 0.0 1014185
06:00−1зюз389492 0.1 1014179
09:00+4з357353 0.1 1014541
12:00+7з4652100 0.8 10141901
15:00+9з464096 0.8 10142114
18:00+9з344674 0.0 10141898
21:00+3юз11645 0.0 101510